CFG41A EYVI-LEPA

Flight info

Callsign CFG41A
Flight time N/A
Altitude 37000
Route UPASI1A UPASI DCT VABER L735 SUWGI N871 ASBIM DCT AGAVA DCT PADKA DCT NAVTI/N0448F360 DCT LIMRA DCT DETSA/N0447F350 DCT DIKEM DCT KALMO DCT ABRON DCT BALEN/N0405F290 UT250 RIXOT RIXOT1P
Aircraft A21N/M-V/N

Departure

Time 2026-05-06 10:49
Airport Vilnius International Airport (EYVI)

Arrival

Time N/A
Airport Palma de Mallorca Airport (LEPA)
Time Latitude Longitude Altitude Speed Heading
2026-05-06 10:42 54.63710 25.28287 664 ft 0 kts 80°
2026-05-06 10:43 54.63712 25.28303 642 ft 2 kts 72°
2026-05-06 10:43 54.63717 25.28303 641 ft 1 kts 37°
2026-05-06 10:43 54.63752 25.28305 641 ft 8 kts 355°
2026-05-06 10:44 54.63936 25.28226 641 ft 18 kts 347°
2026-05-06 10:44 54.64064 25.28192 644 ft 12 kts
2026-05-06 10:44 54.64107 25.28252 646 ft 7 kts 50°
2026-05-06 10:44 54.64121 25.28360 646 ft 17 kts 90°
2026-05-06 10:45 54.64129 25.28641 648 ft 13 kts 65°
2026-05-06 10:45 54.64155 25.28655 648 ft 3 kts 10°
2026-05-06 10:45 54.64200 25.28650 649 ft 10 kts 353°
2026-05-06 10:45 54.64283 25.28635 652 ft 13 kts 359°
2026-05-06 10:46 54.64324 25.28730 656 ft 10 kts 82°
2026-05-06 10:46 54.64329 25.28873 657 ft 14 kts 84°
2026-05-06 10:46 54.64331 25.28941 655 ft 0 kts 86°
2026-05-06 10:48 54.64331 25.28945 655 ft 2 kts 86°
2026-05-06 10:48 54.64331 25.28988 654 ft 7 kts 90°
2026-05-06 10:48 54.64322 25.29136 658 ft 6 kts 123°
2026-05-06 10:48 54.64243 25.29146 654 ft 19 kts 199°
2026-05-06 10:49 54.63919 25.28925 642 ft 91 kts 201°
2026-05-06 10:49 54.63072 25.28357 639 ft 166 kts 201°
2026-05-06 10:49 54.61860 25.27471 1091 ft 202 kts 199°
2026-05-06 10:49 54.60654 25.27547 1549 ft 174 kts 141°
2026-05-06 10:50 54.60227 25.29448 1707 ft 178 kts 82°
2026-05-06 10:50 54.60699 25.31384 1945 ft 176 kts 52°
2026-05-06 10:50 54.61652 25.32894 2250 ft 204 kts 31°
2026-05-06 10:50 54.63026 25.33955 2828 ft 236 kts 13°
2026-05-06 10:51 54.64677 25.34274 3417 ft 249 kts 357°
2026-05-06 10:51 54.66499 25.34258 4104 ft 247 kts 354°
2026-05-06 10:51 54.68224 25.34262 4802 ft 250 kts
2026-05-06 10:51 54.69980 25.34761 5546 ft 258 kts
2026-05-06 10:52 54.71763 25.35320 6311 ft 262 kts
2026-05-06 10:52 54.73595 25.35885 6968 ft 275 kts
2026-05-06 10:52 54.75545 25.36484 7605 ft 292 kts
2026-05-06 10:52 54.77646 25.37017 8319 ft 312 kts 357°
2026-05-06 10:53 54.79825 25.36568 9153 ft 320 kts 337°
2026-05-06 10:53 54.81824 25.34750 10086 ft 321 kts 316°
2026-05-06 10:53 54.83332 25.31907 10835 ft 326 kts 301°
2026-05-06 10:53 54.84402 25.28511 11405 ft 321 kts 282°
2026-05-06 10:54 54.84512 25.24685 11949 ft 316 kts 259°
2026-05-06 10:54 54.83736 25.21134 12556 ft 317 kts 238°
2026-05-06 10:54 54.82302 25.18172 13191 ft 326 kts 224°
2026-05-06 10:54 54.80421 25.15988 13739 ft 333 kts 210°
2026-05-06 10:55 54.78359 25.14133 14265 ft 332 kts 211°
2026-05-06 10:55 54.76244 25.12377 14502 ft 340 kts 208°
2026-05-06 10:55 54.74133 25.10651 15060 ft 334 kts 208°
2026-05-06 10:55 54.72012 25.08908 15613 ft 340 kts 208°
2026-05-06 10:56 54.69878 25.07160 16177 ft 342 kts 209°
2026-05-06 10:56 54.67722 25.05360 16747 ft 344 kts 210°
2026-05-06 10:56 54.66298 25.04135 17133 ft 346 kts 210°
2026-05-06 10:56 54.64158 25.02166 17717 ft 348 kts 215°
2026-05-06 10:57 54.62144 24.99883 18282 ft 349 kts 218°
2026-05-06 10:57 54.60196 24.97244 18817 ft 355 kts 223°
2026-05-06 10:57 54.58322 24.94392 19344 ft 365 kts 225°
2026-05-06 10:57 54.56484 24.91261 19880 ft 374 kts 229°
2026-05-06 10:58 54.54766 24.87871 20426 ft 383 kts 232°
2026-05-06 10:58 54.53068 24.84303 20976 ft 384 kts 233°
2026-05-06 10:58 54.51495 24.80602 21536 ft 383 kts 237°
2026-05-06 10:58 54.50010 24.76756 22121 ft 387 kts 239°
2026-05-06 10:59 54.48821 24.72591 22717 ft 390 kts 250°
2026-05-06 10:59 54.47829 24.68195 23316 ft 394 kts 248°
2026-05-06 10:59 54.46779 24.63803 23846 ft 397 kts 248°
2026-05-06 10:59 54.45702 24.59399 24360 ft 399 kts 248°
2026-05-06 11:00 54.44823 24.55804 24786 ft 400 kts 248°
2026-05-06 11:00 54.43794 24.51333 25270 ft 404 kts 249°
2026-05-06 11:00 54.42798 24.46791 25765 ft 406 kts 250°
2026-05-06 11:00 54.41817 24.42233 26262 ft 407 kts 250°
2026-05-06 11:01 54.40849 24.37702 26767 ft 410 kts 250°
2026-05-06 11:01 54.39865 24.33087 27258 ft 414 kts 250°
2026-05-06 11:01 54.38859 24.28379 27715 ft 417 kts 250°
2026-05-06 11:01 54.37849 24.23670 28171 ft 418 kts 250°
2026-05-06 11:02 54.36837 24.18964 28635 ft 420 kts 250°
2026-05-06 11:02 54.35835 24.14320 29106 ft 419 kts 250°
2026-05-06 11:02 54.34823 24.09644 29595 ft 415 kts 250°
2026-05-06 11:02 54.33818 24.05017 30052 ft 412 kts 250°
2026-05-06 11:03 54.32810 24.00393 30466 ft 412 kts 250°
2026-05-06 11:03 54.31805 23.95784 30887 ft 412 kts 250°
2026-05-06 11:03 54.30808 23.91221 31318 ft 411 kts 250°
2026-05-06 11:03 54.29817 23.86688 31755 ft 409 kts 250°
2026-05-06 11:04 54.28799 23.82033 32205 ft 407 kts 250°
2026-05-06 11:04 54.27820 23.77551 32660 ft 406 kts 248°
2026-05-06 11:04 54.26830 23.73014 33103 ft 406 kts 249°
2026-05-06 11:04 54.25807 23.68506 33579 ft 405 kts 249°
2026-05-06 11:05 54.24771 23.64006 34019 ft 408 kts 249°
2026-05-06 11:05 54.23721 23.59478 34433 ft 410 kts 249°
2026-05-06 11:05 54.22718 23.55166 34839 ft 412 kts 249°
2026-05-06 11:05 54.21621 23.50467 35280 ft 413 kts 249°
2026-05-06 11:06 54.20545 23.45871 35716 ft 414 kts 249°
2026-05-06 11:06 54.19469 23.41287 36161 ft 415 kts 249°
2026-05-06 11:06 54.18390 23.36697 36545 ft 418 kts 249°
2026-05-06 11:06 54.17279 23.31979 36702 ft 425 kts 249°
2026-05-06 11:07 54.16164 23.27246 36768 ft 434 kts 249°
2026-05-06 11:07 54.13867 23.17494 36796 ft 442 kts 249°
2026-05-06 11:08 54.11597 23.07879 36813 ft 431 kts 248°
2026-05-06 11:08 54.09249 22.98530 36808 ft 429 kts 247°
2026-05-06 11:09 54.06723 22.89282 36811 ft 432 kts 245°
2026-05-06 11:09 54.03877 22.80360 36812 ft 432 kts 232°
2026-05-06 11:09 54.01667 22.76822 36823 ft 437 kts 219°
2026-05-06 11:10 53.99148 22.73838 36802 ft 441 kts 216°
2026-05-06 11:10 53.93945 22.68317 36800 ft 441 kts 214°
2026-05-06 11:11 53.88702 22.62846 36796 ft 439 kts 215°
2026-05-06 11:11 53.83547 22.57347 36795 ft 441 kts 215°
2026-05-06 11:12 53.78347 22.51753 36788 ft 441 kts 216°
2026-05-06 11:12 53.73222 22.45939 36779 ft 439 kts 217°
2026-05-06 11:13 53.68211 22.40006 36778 ft 440 kts 218°
2026-05-06 11:13 53.63246 22.34023 36776 ft 440 kts 218°
2026-05-06 11:14 53.58252 22.27982 36773 ft 439 kts 218°
2026-05-06 11:14 53.53277 22.21964 36777 ft 440 kts 218°
2026-05-06 11:15 53.48319 22.15967 36776 ft 440 kts 218°
2026-05-06 11:15 53.43341 22.09951 36774 ft 439 kts 218°
2026-05-06 11:16 53.38373 22.03949 36770 ft 439 kts 218°
2026-05-06 11:16 53.33396 21.97940 36767 ft 440 kts 218°
2026-05-06 11:17 53.28422 21.91938 36765 ft 440 kts 218°
2026-05-06 11:17 53.23509 21.86010 36764 ft 440 kts 218°
2026-05-06 11:18 53.18492 21.79961 36760 ft 441 kts 218°
2026-05-06 11:18 53.13508 21.73951 36758 ft 441 kts 218°
2026-05-06 11:19 53.08581 21.68014 36759 ft 441 kts 218°
2026-05-06 11:19 53.03581 21.61990 36754 ft 441 kts 218°
2026-05-06 11:20 52.98619 21.56015 36755 ft 442 kts 218°
2026-05-06 11:20 52.94465 21.51015 36756 ft 442 kts 218°
2026-05-06 11:21 52.89480 21.45017 36751 ft 441 kts 218°
2026-05-06 11:21 52.84497 21.39028 36756 ft 442 kts 218°
2026-05-06 11:22 52.79497 21.33025 36754 ft 442 kts 218°
2026-05-06 11:22 52.74539 21.27082 36750 ft 442 kts 218°
2026-05-06 11:23 52.69496 21.21133 36751 ft 442 kts 217°
2026-05-06 11:23 52.64443 21.15295 36755 ft 443 kts 217°
2026-05-06 11:24 52.59404 21.09502 36753 ft 442 kts 217°
2026-05-06 11:24 52.54345 21.03701 36749 ft 442 kts 217°
2026-05-06 11:25 52.49278 20.97898 36747 ft 443 kts 217°
2026-05-06 11:25 52.44182 20.92163 36752 ft 443 kts 216°
2026-05-06 11:26 52.39031 20.86481 36750 ft 442 kts 216°
2026-05-06 11:26 52.33931 20.80887 36748 ft 443 kts 216°